Regional Weather Roundup
Issued by NWS Green Bay, WI

Home | Current Version | Previous Version | Graphics & Text | Print | Product List | Glossary Off
Versions: 1 2 3 4 5 6 7 8 9 10 11 12 13 14 15 16 17 18 19 20 21 22 23 24 25 26 27 28 29 30 31 32 33 34 35 36 37 38 39 40 41 42 43 44 45 46 47 48 49 50

000
ASUS43 KGRB 220810
RWRGRB

NORTH-CENTRAL AND NORTHEAST WISCONSIN REGIONAL WEATHER ROUNDUP
NATIONAL WEATHER SERVICE GREEN BAY WI
300 AM CDT MON SEP 22 2014

WIZ005-009-010>012-018-019-220900-
NORTH CENTRAL WISCONSIN

CITY           SKY/WX    TMP DP  RH WIND       PRES   REMARKS
IRONWOOD         N/A     37  37 100 CALM      30.13F VSB 3/4
MANITOWISH WTR CLEAR     35  35 100 CALM      30.16S
ARBOR VITAE    FOG       37  35  94 CALM      30.16S VSB 1
EAGLE RIVER    MOCLDY    33  33 100 CALM      30.14F FOG
LAND O LAKES   CLEAR     32  32 100 CALM      30.15S FOG
RHINELANDER    CLEAR     41  39  93 W7        30.17S
PHILLIPS       CLEAR     36  36  99 CALM      30.18S
ANTIGO         CLEAR     35  35  99 CALM      30.16F
TOMAHAWK       CLEAR     32  31  98 CALM      30.18S
MERRILL        CLEAR     34  34  99 CALM      30.18R
$$

WIZ013-073-220900-
NORTHEAST WISCONSIN

CITY           SKY/WX    TMP DP  RH WIND       PRES   REMARKS
IRON MOUNTAIN  CLEAR     35  33  92 CALM      30.12F
MARINETTE      CLEAR     37  36  93 NW3       30.15S
OCONTO         CLEAR     35  35 100 CALM      30.16F
$$

WIZ017-030-035>037-045-220900-
CENTRAL WISCONSIN

CITY           SKY/WX    TMP DP  RH WIND       PRES   REMARKS
MEDFORD        CLEAR     39  38  96 CALM      30.19S
WAUSAU         CLEAR     41  39  93 NW5       30.17S
MOSINEE        CLEAR     37  37 100 CALM      30.19S
MARSHFIELD     CLEAR     42  39  89 W6        30.20R
WISC RAPIDS    CLEAR     38  37  97 CALM      30.21S
STEVENS POINT  CLEAR     35  34  97 CALM      30.19S
WAUPACA        CLEAR     41  40  95 CALM      30.18F
SHAWANO        CLEAR     39  37  93 CALM      30.18S
CLINTONVILLE   CLEAR     37  36  93 CALM      30.18S
$$

WIZ038-039-048-051-220900-
FOX VALLEY

CITY           SKY/WX    TMP DP  RH WIND       PRES   REMARKS
NWS GREEN BAY  CLEAR     39  38  96 W5        30.17S
APPLETON       CLEAR     39  37  93 W7        30.18S
OSHKOSH        CLEAR     40  39  97 CALM      30.17F
FOND DU LAC    CLEAR     42  39  89 CALM      30.18F
$$

WIZ022-050-052-220900-
EAST CENTRAL WISCONSIN

CITY           SKY/WX    TMP DP  RH WIND       PRES   REMARKS
STURGEON BAY   CLEAR     43  37  81 CALM      30.16S
MANITOWOC      CLEAR     41  40  96 CALM      30.17F
SHEBOYGAN      CLEAR     41  38  89 NW3       30.17F
$$

LMZ563-521-522-541>543-220900-
LAKESHORE

STATION/POSITION TIME  TEMP    WIND        PRES    VSBY  WAVE
                       AIR SEA DIR/SP/G                  HT/PER
                 (UTC) (F)     (DEG/KT/KT) (MB)    (MI)  (FT/S)
SHEBOYGAN LKSHOR 0800   45 51  300/  7/  8 1022.2F
KEWAUNEE LKSHORE 0800   41     300/  4/  5 1020.4S
NORTHPORT PIER   0800   49     350/ 11/ 17 1020.3S
N MID LAKE BUOY  0800   48 57  340/ 14/ 16 1020.2F         3/ 4
S GREEN BAY BUOY 0800   48     VRB  4/  8  1022.2S
CHAMBERS ISLAND  0800   45     290/  5/  8 1021.0S
MENOMINEE LKSHOR 0800   42     250/  6/  8 1021.6F
$$



USA.gov is the U.S. government's official web portal to all federal, state and local government web resources and services.